Date,TemperatureHighF,TemperatureAvgF,TemperatureLowF,DewpointHighF,DewpointAvgF,DewpointLowF,HumidityHigh,HumidityAvg,HumidityLow,PressureMaxIn,PressureMinIn,WindSpeedMaxMPH,WindSpeedAvgMPH,GustSpeedMaxMPH,PrecipitationSumIn
2013-1-1,25,16,10,17,10,6,93,77,48,0.00,40.00,16,8,23,0.00
2013-1-2,31,20,10,20,12,6,89,71,49,0.00,40.00,21,9,25,0.00
2013-1-3,29,26,18,28,24,17,98,94,85,0.00,40.00,16,11,23,0.00
2013-1-4,36,25,14,28,21,13,97,88,67,0.00,40.00,24,14,34,0.00
2013-1-5,39,31,22,36,30,22,99,95,75,0.00,40.00,23,10,31,0.00
2013-1-6,36,29,22,36,28,22,99,95,88,0.00,40.00,23,12,32,0.00
2013-1-7,42,30,18,32,26,18,99,86,58,0.00,40.00,29,14,38,0.00
2013-1-8,45,35,28,35,31,27,97,87,63,0.00,40.00,23,12,29,0.00
2013-1-9,47,40,30,37,31,24,95,74,41,0.00,40.00,27,15,37,0.00
2013-1-10,45,35,24,41,31,23,99,87,53,0.00,40.00,14,6,21,0.00
2013-1-11,52,49,40,52,49,40,99,98,96,0.00,40.00,25,13,34,0.00
2013-1-12,53,43,29,51,39,28,97,87,73,0.00,40.00,25,14,33,0.00
2013-1-13,30,23,14,30,22,11,99,95,86,0.00,40.00,18,9,26,0.00
2013-1-14,28,17,11,16,12,-100,94,82,55,0.00,40.00,14,6,18,0.00
2013-1-15,33,26,16,22,18,14,95,73,49,0.00,40.00,9,3,12,0.00
2013-1-16,36,28,18,32,23,16,98,83,56,0.00,40.00,24,11,32,0.00
2013-1-17,34,26,21,33,16,6,97,67,40,0.00,40.00,18,8,25,0.00
2013-1-18,43,32,18,34,26,16,95,80,62,0.00,40.00,37,17,48,0.00
2013-1-19,47,41,27,40,34,11,85,75,47,0.00,40.00,44,17,54,0.00
2013-1-20,27,16,12,14,6,3,71,63,51,0.00,40.00,32,12,42,0.00
2013-1-21,13,8,2,6,0,-6,82,67,54,0.00,40.00,23,13,29,0.00
2013-1-22,11,5,-3,-1,-3,-7,86,70,55,0.00,40.00,17,9,21,0.00
2013-1-23,20,14,8,18,9,-1,96,80,64,0.00,40.00,24,10,33,0.00
2013-1-24,21,13,4,15,6,0,84,73,48,0.00,40.00,16,10,23,0.00
2013-1-25,28,22,18,25,18,7,99,85,57,0.00,40.00,19,10,26,0.00
2013-1-26,31,22,11,21,13,9,94,72,42,0.00,40.00,11,5,14,0.00
2013-1-27,26,25,24,24,23,21,92,90,82,0.00,40.00,14,10,18,0.00
2013-1-28,49,43,39,48,42,38,99,95,82,0.00,40.00,14,7,21,0.00
2013-1-29,62,55,39,62,55,39,99,99,99,0.00,40.00,23,12,31,0.00
2013-1-30,45,33,21,45,33,17,99,97,84,0.00,40.00,24,13,32,0.00
2013-1-31,16,11,4,13,6,0,88,77,66,0.00,40.00,21,16,29,0.00
2013-2-1,13,7,0,12,1,-4,94,77,63,0.00,40.00,19,12,24,0.00
2013-2-2,23,15,8,23,13,4,99,90,74,0.00,40.00,21,9,24,0.00
2013-2-3,22,16,8,19,12,3,95,81,66,0.00,40.00,21,9,26,0.00
2013-2-4,27,22,13,27,21,11,99,97,92,0.00,40.00,17,7,21,0.00
2013-2-5,30,23,11,30,21,8,99,92,82,0.00,40.00,18,8,29,0.00
2013-2-6,38,30,14,33,25,13,97,81,62,0.00,40.00,14,7,18,0.00
2013-2-7,35,33,33,35,33,31,99,98,91,0.00,40.00,21,6,26,0.00
2013-2-8,33,26,22,33,26,22,99,98,94,0.00,40.00,23,11,29,0.00
2013-2-9,35,28,19,31,26,19,99,94,82,0.00,40.00,19,7,23,0.00
2013-2-10,48,39,25,48,38,25,99,97,82,0.00,40.00,26,13,39,0.00
2013-2-11,45,34,28,42,30,24,91,83,76,0.00,40.00,40,24,52,0.00
2013-2-12,28,26,24,26,24,22,97,91,85,0.00,40.00,19,9,26,0.00
2013-2-13,43,32,23,36,30,23,99,91,66,0.00,40.00,12,6,16,0.00
2013-2-14,39,37,33,37,32,24,95,84,62,0.00,40.00,21,12,37,0.00
2013-2-15,33,27,19,28,17,10,95,68,45,0.00,40.00,17,10,21,0.00
2013-2-16,21,16,12,13,8,4,86,72,59,0.00,40.00,18,9,23,0.00
2013-2-17,32,21,9,16,7,3,82,57,33,0.00,40.00,14,6,21,0.00
2013-2-18,52,40,28,49,33,16,99,77,60,0.00,40.00,29,18,40,0.00
2013-2-19,32,16,11,32,13,3,99,87,71,0.00,40.00,29,20,40,0.00
2013-2-20,25,16,8,15,9,3,89,75,62,0.00,40.00,18,10,23,0.00
2013-2-21,29,24,16,28,23,14,97,93,88,0.00,40.00,24,11,36,0.00
2013-2-22,34,29,25,34,28,25,99,98,94,0.00,40.00,21,11,27,0.00
2013-2-23,30,26,23,28,24,20,97,90,72,0.00,40.00,21,11,25,0.00
2013-2-24,42,30,18,27,23,17,97,79,50,0.00,40.00,10,4,14,0.00
2013-2-25,44,32,20,34,28,20,99,84,52,0.00,40.00,12,4,14,0.00
2013-2-26,36,34,32,34,33,32,99,96,88,0.00,40.00,29,19,42,0.00
2013-2-27,35,33,32,35,33,32,99,99,99,0.00,40.00,17,11,21,0.00
2013-2-28,36,33,27,34,30,21,99,90,75,0.00,40.00,19,14,26,0.00
2013-3-1,28,26,25,26,24,23,95,91,84,0.00,40.00,21,15,29,0.00
2013-3-2,33,26,17,23,18,14,93,74,48,0.00,40.00,17,10,23,0.00
2013-3-3,37,24,14,17,12,4,93,65,30,0.00,40.00,12,5,14,0.00
2013-3-4,33,26,15,27,21,14,98,83,63,0.00,40.00,16,7,21,0.00
2013-3-5,33,31,29,32,30,27,99,96,78,0.00,40.00,23,12,29,0.00
2013-3-6,36,31,28,30,28,27,99,90,75,0.00,40.00,18,11,23,0.00
2013-3-7,43,34,26,29,25,20,97,74,42,0.00,40.00,10,5,12,0.00
2013-3-8,45,34,24,33,27,23,99,77,43,0.00,40.00,18,5,23,0.00
2013-3-9,45,38,31,36,31,27,97,78,59,0.00,40.00,23,12,27,0.00
2013-3-10,50,45,42,50,45,42,99,99,99,0.00,40.00,18,8,24,0.00
2013-3-11,48,39,33,48,39,32,99,99,98,0.00,40.00,14,9,21,0.00
2013-3-12,36,32,26,33,28,20,98,86,58,0.00,40.00,24,14,29,0.00
2013-3-13,33,27,21,25,14,6,95,61,35,0.00,40.00,21,12,27,0.00
2013-3-14,39,30,23,32,22,13,97,73,41,0.00,40.00,14,7,18,0.00
2013-3-15,43,35,32,39,34,31,99,94,71,0.00,40.00,14,6,17,0.00
2013-3-16,34,31,29,34,30,23,99,93,75,0.00,40.00,21,11,26,0.00
2013-3-17,33,30,24,26,21,16,77,71,63,0.00,40.00,18,12,24,0.00
2013-3-18,35,31,23,35,28,15,99,91,70,0.00,40.00,33,13,44,0.00
2013-3-19,33,24,17,15,12,10,81,62,43,0.00,40.00,33,21,48,0.00
2013-3-30,60,55,51,44,34,-100,76,50,36,0.00,40.00,25,16,32,0.00
2013-3-31,57,46,37,47,37,27,99,73,37,0.00,40.00,29,14,36,0.00
2013-4-1,40,34,29,28,18,13,75,52,37,0.00,40.00,21,11,31,0.00
2013-4-2,43,34,25,21,15,11,77,48,28,0.00,40.00,21,9,29,0.00
2013-4-3,42,34,26,23,17,13,75,50,35,0.00,40.00,14,6,21,0.00
2013-4-4,59,44,30,36,25,18,77,50,30,0.00,40.00,18,9,24,0.00
2013-4-5,47,40,35,36,29,21,90,66,52,0.00,40.00,23,11,29,0.00
2013-4-6,68,52,36,52,35,25,93,56,32,0.00,40.00,42,18,52,0.00
2013-4-7,61,48,39,52,41,35,96,77,43,0.00,40.00,24,11,33,0.00
2013-4-8,63,50,39,56,46,35,99,87,62,0.00,40.00,32,12,50,0.00
2013-4-9,48,41,39,48,41,39,99,99,97,0.00,40.00,21,12,26,0.00
2013-4-10,40,39,37,40,39,37,99,99,99,0.00,40.00,34,16,39,0.00
2013-4-11,43,40,37,43,40,37,99,99,99,0.00,40.00,31,12,38,0.00
2013-4-12,45,40,37,42,37,33,99,91,77,0.00,40.00,24,13,31,0.00
2013-4-13,44,39,35,34,30,26,90,73,53,0.00,40.00,23,12,31,0.00
2013-4-14,66,48,37,51,38,30,88,70,48,0.00,40.00,29,12,40,0.00
2013-4-15,67,57,43,58,52,42,98,84,49,0.00,40.00,34,16,49,0.00
2013-4-16,58,46,40,42,38,34,98,78,44,0.00,40.00,14,7,19,0.00
2013-4-17,46,43,41,46,40,34,99,91,69,0.00,40.00,27,12,32,0.00
2013-4-18,64,51,42,61,50,38,99,96,83,0.00,40.00,39,13,48,0.00
2013-4-19,43,38,32,38,31,25,98,76,62,0.00,40.00,33,21,44,0.00
2013-4-20,47,37,29,32,23,16,98,61,31,0.00,40.00,19,9,26,0.00
2013-4-21,55,43,30,30,26,20,93,55,32,0.00,40.00,18,10,26,0.00
2013-4-22,68,55,43,37,33,29,63,45,30,0.00,40.00,17,11,23,0.00
2013-4-23,59,49,38,53,45,36,99,87,49,0.00,40.00,16,9,21,0.00
2013-4-24,51,43,36,39,31,24,99,68,37,0.00,40.00,19,10,25,0.00
2013-4-25,51,45,39,41,33,28,97,64,42,0.00,40.00,23,11,33,0.00
2013-4-26,68,54,38,48,38,30,84,58,42,0.00,40.00,34,14,40,0.00
2013-4-27,68,58,46,51,44,37,97,64,35,0.00,40.00,18,8,25,0.00
2013-4-28,67,57,52,56,52,44,97,82,63,0.00,40.00,11,5,14,0.00
2013-4-29,74,62,51,57,53,50,98,75,46,0.00,40.00,25,12,31,0.00
2013-4-30,86,75,62,63,58,55,91,60,37,0.00,40.00,31,20,40,0.00
2013-5-1,86,76,66,63,57,51,80,54,33,0.00,40.00,19,12,25,0.00
2013-5-2,66,49,44,57,46,42,99,89,71,0.00,40.00,23,13,31,0.00
2013-5-3,48,44,40,48,43,39,99,99,96,0.00,40.00,18,12,25,0.00
2013-5-4,68,58,48,50,48,46,99,74,50,0.00,40.00,18,8,25,0.00
2013-5-5,68,58,48,49,46,40,93,65,46,0.00,40.00,21,8,25,0.00
2013-5-6,70,59,53,47,42,36,76,54,34,0.00,40.00,18,7,21,0.00
2013-5-7,75,62,49,49,44,40,87,54,33,0.00,40.00,12,6,16,0.00
2013-5-8,80,66,49,53,46,40,96,56,29,0.00,40.00,14,4,18,0.00
2013-5-9,73,61,46,65,53,46,99,79,53,0.00,40.00,18,4,27,0.00
2013-5-10,47,44,44,47,42,-100,99,98,93,0.00,40.00,21,11,29,0.00
2013-5-11,57,49,43,51,38,-100,99,71,33,0.00,40.00,31,12,39,0.00
2013-5-12,56,46,39,37,28,25,80,51,32,0.00,40.00,23,12,29,0.00
2013-5-13,63,49,35,42,33,25,98,59,25,0.00,40.00,14,6,19,0.00
2013-5-14,92,71,51,57,47,32,56,44,24,0.00,40.00,24,11,32,0.00
2013-5-15,83,76,61,58,52,48,80,45,33,0.00,40.00,18,10,25,0.00
2013-5-16,83,61,55,56,29,-100,84,55,29,0.00,40.00,14,5,19,0.00
2013-5-17,66,58,53,54,42,-100,80,68,56,0.00,40.00,18,7,23,0.00
2013-5-18,79,67,53,63,58,49,95,75,55,0.00,40.00,14,6,17,0.00
2013-5-19,87,73,58,67,63,57,97,73,45,0.00,40.00,19,7,24,0.00
2013-5-20,89,81,68,72,62,54,97,56,31,0.00,40.00,24,15,32,0.00
2013-5-21,82,73,64,68,63,54,98,74,40,0.00,40.00,29,12,36,0.00
2013-5-22,72,66,55,70,62,53,98,88,57,0.00,40.00,21,7,26,0.00
2013-5-23,54,49,41,53,46,36,99,88,69,0.00,40.00,29,15,37,0.00
2013-5-24,57,48,38,38,35,32,91,64,43,0.00,40.00,17,7,24,0.00
2013-5-25,57,50,42,44,40,35,91,70,48,0.00,40.00,11,4,14,0.00
2013-5-26,67,55,42,51,44,36,95,70,46,0.00,40.00,17,6,21,0.00
2013-5-27,57,55,52,56,54,46,98,95,79,0.00,40.00,17,8,21,0.00
2013-5-28,77,67,55,73,65,54,99,94,76,0.00,40.00,19,9,26,0.00
2013-5-29,85,71,65,70,66,64,97,86,59,0.00,40.00,17,9,21,0.00
2013-9-25,65,62,54,52,51,48,90,69,54,0.00,40.00,1,1,2,0.00
2013-9-26,74,61,51,57,52,45,96,76,37,0.00,40.00,1,0,1,0.00
2013-9-27,80,65,51,54,52,47,95,65,38,0.00,40.00,1,0,2,0.00
2013-10-12,71,61,53,63,50,-100,91,72,58,0.00,40.00,2,1,3,0.00
2013-10-13,62,52,45,45,40,31,88,67,32,0.00,40.00,1,0,2,0.00
2013-10-14,59,51,43,47,43,40,93,74,54,0.00,40.00,2,0,3,0.00
2013-10-15,63,56,51,61,50,44,95,79,69,0.00,40.00,1,1,2,0.00
2013-10-16,53,50,47,47,44,41,91,81,75,0.00,40.00,2,1,3,0.00
2013-10-17,51,48,43,47,45,41,95,88,69,0.00,40.00,1,0,1,0.00
2013-10-18,49,45,39,42,39,37,95,80,66,0.00,40.00,0,0,0,0.00
2013-10-23,45,37,31,32,26,21,90,67,38,0.00,40.00,1,1,4,0.00
2013-10-24,40,37,33,28,25,20,78,62,45,0.00,40.00,1,1,3,0.00
2013-10-25,51,41,30,28,25,23,76,55,36,0.00,40.00,2,1,4,0.00
2013-10-26,52,45,39,35,26,-100,64,49,39,0.00,40.00,3,1,4,0.00
2013-10-27,54,43,31,30,28,27,86,58,37,0.00,40.00,2,1,3,0.00
2013-10-28,49,43,36,41,33,-100,89,75,61,0.00,40.00,2,1,4,0.00
2013-10-29,56,47,38,43,40,35,93,76,46,0.00,40.00,1,1,1,0.00
2013-10-31,63,59,46,61,57,42,97,94,84,0.00,40.00,3,1,4,0.00
2013-11-1,48,45,42,44,40,36,94,82,75,0.00,40.00,3,1,6,0.00
2013-11-2,47,41,37,43,35,-100,95,85,68,0.00,40.00,0,0,0,0.00
2013-11-3,53,43,33,39,35,31,97,76,43,0.00,40.00,0,0,0,0.00
2013-11-4,56,50,43,43,38,35,74,64,47,0.00,40.00,0,0,0,0.00
2013-11-5,55,53,51,51,47,43,93,80,72,0.00,40.00,0,0,0,0.00
2013-11-6,56,48,36,55,44,24,96,87,62,0.00,40.00,0,0,0,0.00
2013-12-22,33,29,23,31,26,19,97,91,85,0.00,40.00,0,0,0,0.00
2013-12-23,24,12,-3,21,7,-9,90,79,72,0.00,40.00,2,1,3,0.00
2013-12-24,17,7,-3,10,0,-9,78,72,58,0.00,40.00,2,1,3,0.00
2013-12-25,25,22,17,23,18,10,94,84,71,0.00,40.00,2,1,4,0.00
2013-12-26,33,24,14,28,18,9,88,77,69,0.00,40.00,2,1,4,0.00
2013-12-27,41,34,25,31,28,23,95,77,60,0.00,40.00,3,1,4,0.00
2013-12-28,48,40,32,34,31,28,89,70,55,0.00,40.00,2,1,4,0.00